Tracking 19576 objects as of 17-Feb-2019
HD Live streaming from Space Station
objects crossing your sky now

IRIDIUM 160

Track IRIDIUM 160 now!
10-day predictions
IRIDIUM 160 is classified as:


NORAD ID: 43569
Int'l Code: 2018-061A
Perigee: 783.4 km
Apogee: 786.2 km
Inclination: 86.4 °
Period: 100.4 minutes
Semi major axis: 7155 km
RCS: Unknown
Launch date: July 25, 2018
Source: United States (US)
Launch site: AIR FORCE WESTERN TEST RANGE (AFWTR)
aabbcc
Your satellite tracking list
Your tracking list is empty




NASA's NSSDC Master Catalog

Two Line Element Set (TLE):
1 43569U 18061A   19048.53067507  .00000073  00000-0  19032-4 0  9997
2 43569  86.3943  95.3484 0001969  96.9631 263.1789 14.34218433 29723
Source of the keplerian elements: AFSPC